Glasgow, MT

10:55 PM MDT on May 25, 2017 (GMT -0600)
Wokal-Glasgow International

Weather History for KGGW - August, 2013

Change the Weather History Date:

Thursday, August 8, 2013

  Actual Average Record
Temperature  
Mean Temperature 64 °F 72 °F  
Max Temperature 79 °F 87 °F 102 °F (1970)
Min Temperature 48 °F 58 °F 37 °F (1927)
Degree Days  
Heating Degree Days 1 0  
Month to date heating degree days 5 0  
Since 1 June heating degree days 99 123  
Since 1 July heating degree days 15 18  
Cooling Degree Days 0 8  
Month to date cooling degree days 20 64  
Year to date cooling degree days 250 363  
Since 1 June cooling degree days 241 346  
Growing Degree Days 14 (Base 50)    
Moisture  
Dew Point 45 °F    
Average Humidity 59    
Maximum Humidity 86    
Minimum Humidity 31    
Precipitation  
Precipitation T in 0.05 in 0.76 in (1994)
Month to date precipitation 0.08 0.36  
Year to date precipitation 12.49 8.29  
Snow  
Snow 0.00 in 0.00 in T in (1994)
Month to date snowfall 0.0 0.0  
Since 1 June snowfall 0.0 0.0  
Since 1 July snowfall 0.0 0.0  
Snow Depth 0.00 in    
Sea Level Pressure  
Sea Level Pressure 30.10 in    
Wind  
Wind Speed 9 mph (ENE)    
Max Wind Speed 20 mph    
Max Gust Speed 25 mph    
Visibility 10 miles    
Events      
T = Trace of Precipitation, MM = Missing Value Source: NWS Daily Summary

Daily Weather History Graph

Daily Weather History Graph

Search for Another Location

Airport or City:

Trip Planner

Search our weather history database for the weather conditions in past years. The results will help you decide how hot, cold, wet, or windy it might be!

Date:

Astronomy

Aug. 08, 2013 Rise Set
Actual Time 5:51 AM MDT 8:31 PM MDT
Civil Twilight 5:16 AM MDT 9:06 PM MDT
Nautical Twilight 4:31 AM MDT 9:51 PM MDT
Astronomical Twilight 3:38 AM MDT 10:43 PM MDT
Moon 7:55 AM MDT (8/8) 8:55 PM MDT (8/8)
Length of Visible Light 15h 50m
Length of Day
14h 39m
Waxing Crescent, 3% of the Moon is Illuminated
Aug 8
Waxing Crescent
Aug 14
First Quarter
Aug 20
Full
Aug 28
Last Quarter
Sep 5
New

Hourly Weather History & Observations

Time (MDT) Temp. Dew Point Humidity Pressure Visibility Wind Dir Wind Speed Gust Speed Precip Events Conditions
12:53 AM 54.0 °F 45.0 °F 72% 30.08 in 10.0 mi East 9.2 mph - N/A   Mostly Cloudy
1:53 AM 53.1 °F 45.0 °F 74% 30.08 in 10.0 mi East 11.5 mph - N/A   Mostly Cloudy
2:53 AM 51.1 °F 44.1 °F 77% 30.10 in 10.0 mi Calm Calm - N/A   Partly Cloudy
3:53 AM 50.0 °F 45.0 °F 83% 30.10 in 10.0 mi East 5.8 mph - N/A   Scattered Clouds
4:53 AM 51.1 °F 45.0 °F 80% 30.08 in 10.0 mi North - - N/A   Scattered Clouds
5:53 AM 48.9 °F 45.0 °F 86% 30.09 in 10.0 mi ENE 8.1 mph - N/A   Clear
6:53 AM 52.0 °F 46.0 °F 80% 30.10 in 10.0 mi East 9.2 mph - N/A   Clear
7:53 AM 57.9 °F 46.9 °F 67% 30.11 in 10.0 mi East 6.9 mph - N/A   Clear
8:53 AM 63.0 °F 46.9 °F 56% 30.10 in 10.0 mi SE 6.9 mph - N/A   Clear
9:53 AM 66.0 °F 44.1 °F 45% 30.10 in 10.0 mi SSE 9.2 mph - N/A   Partly Cloudy
10:53 AM 70.0 °F 44.1 °F 39% 30.10 in 10.0 mi Variable 4.6 mph - N/A   Overcast
11:53 AM 72.0 °F 44.1 °F 37% 30.09 in 10.0 mi East 9.2 mph - N/A   Mostly Cloudy
12:53 PM 73.9 °F 44.1 °F 34% 30.09 in 10.0 mi Variable 4.6 mph - N/A   Clear
1:53 PM 75.9 °F 43.0 °F 31% 30.07 in 10.0 mi Calm Calm - N/A   Clear
2:53 PM 75.9 °F 44.1 °F 32% 30.07 in 10.0 mi North 9.2 mph - N/A   Partly Cloudy
3:53 PM 75.9 °F 43.0 °F 31% 30.08 in 10.0 mi NNE 5.8 mph - N/A   Clear
4:53 PM 75.9 °F 42.1 °F 30% 30.07 in 10.0 mi NE 8.1 mph 17.3 mph N/A   Partly Cloudy
5:53 PM 75.9 °F 43.0 °F 31% 30.07 in 10.0 mi NE 9.2 mph - N/A   Scattered Clouds
6:53 PM 73.9 °F 44.1 °F 34% 30.08 in 10.0 mi East 6.9 mph - N/A   Partly Cloudy
7:53 PM 70.0 °F 50.0 °F 49% 30.09 in 10.0 mi ENE 10.4 mph - N/A   Partly Cloudy
8:53 PM 64.0 °F 48.9 °F 58% 30.11 in 10.0 mi ENE 16.1 mph - N/A   Clear
9:53 PM 61.0 °F 48.0 °F 62% 30.13 in 10.0 mi ENE 12.7 mph - N/A   Partly Cloudy
10:53 PM 61.0 °F 46.9 °F 60% 30.14 in 10.0 mi ENE 18.4 mph 24.2 mph N/A   Mostly Cloudy
11:53 PM 60.1 °F 48.0 °F 64% 30.16 in 10.0 mi ENE 16.1 mph - N/A   Overcast